This is the latest recevied weather packets stored in our database for station/object DP0GVN-13. If no packets are shown the sender has not sent any weather packets the latest 10 day(s).
| Time | Temp. | Humidity | Pressure | Rain* | Wind** | Luminosity | Snow |
|---|---|---|---|---|---|---|---|
| 1777645812 | -35° C | 72% | 988 hPa | - | - | 1 W/m² | - |
| 1777644012 | -35° C | 73% | 987.9 hPa | - | - | 1 W/m² | - |
| 1777642212 | -35° C | 73% | 987.7 hPa | - | - | 1 W/m² | - |
| 1777640412 | -35° C | 74% | 987.5 hPa | - | - | 1 W/m² | - |
| 1777638612 | -35° C | 74% | 987.4 hPa | - | - | 1 W/m² | - |
| 1777636825 | -35.56° C | 73% | 987.2 hPa | - | - | 1 W/m² | - |
| 1777635012 | -35.56° C | 73% | 987 hPa | - | - | 1 W/m² | - |
| 1777633212 | -35° C | 74% | 986.6 hPa | - | - | 1 W/m² | - |
| 1777631412 | -35° C | 76% | 986.4 hPa | - | - | 1 W/m² | - |
| 1777629612 | -35° C | 74% | 986.1 hPa | - | - | 1 W/m² | - |
| 1777627825 | -35° C | 72% | 985.8 hPa | - | - | 0 W/m² | - |
| 1777626012 | -35° C | 74% | 985.7 hPa | - | - | 0 W/m² | - |
| 1777624212 | -35° C | 73% | 985.5 hPa | - | - | 0 W/m² | - |
| 1777622412 | -35° C | 73% | 985.3 hPa | - | - | 0 W/m² | - |
| 1777620612 | -35.56° C | 71% | 985.1 hPa | - | - | 0 W/m² | - |
| 1777618812 | -35.56° C | 72% | 984.9 hPa | - | - | 0 W/m² | - |
| 1777617012 | -36.67° C | 70% | 984.7 hPa | - | - | 0 W/m² | - |
| 1777615212 | -35.56° C | 72% | 984.3 hPa | - | - | 0 W/m² | - |
| 1777613412 | -35.56° C | 74% | 984.2 hPa | - | - | 0 W/m² | - |
| 1777611612 | -35° C | 73% | 984 hPa | - | - | 0 W/m² | - |
| 1777609812 | -35° C | 70% | 983.8 hPa | - | - | 0 W/m² | - |
| 1777608012 | -35.56° C | 72% | 983.6 hPa | - | - | 0 W/m² | - |
| 1777606212 | -35.56° C | 71% | 983.4 hPa | - | - | 0 W/m² | - |
| 1777604412 | -36.67° C | 71% | 983.3 hPa | - | - | 0 W/m² | - |
| 1777602612 | -36.67° C | 72% | 983.2 hPa | - | - | 0 W/m² | - |
* Rain since midnight (hover to see other rain measurements)
** Current wind speed in m/s (hover to see current wind gust speed)